Home   Weather   Porto Novo   Past weeks

Flag for Benin Past Weather in Porto Novo, Benin — Yesterday and Last 2 Weeks

Now
82 °F

Passing clouds.


Feels Like: 92 °F
Forecast: 78 / 89 °F
Wind: 9 mph from South

Location: Cotonou Airport

Current Time: Dec 9, 2016 at 1:00:20 am

Latest Report: Dec 9, 2016 at 12:00 am


Visibility: N/A

Pressure: 29.86 "Hg

Humidity: 89%

Dew Point: 79 °F

Location of Porto NovoLocation

Past Weather in Porto Novo — Graph

°F

Porto Novo Temperature Yesterday

Maximum temperature yesterday: 90 °F (at 11:00 am)
Minimum temperature yesterday: 81 °F (at 7:00 am)
Average temperature yesterday: 85 °F

High & Low Weather Summary for the Past Weeks

 TemperatureHumidityPressure
High91 °F (Nov 28, 1:00 pm)94% (Nov 23, 11:00 pm)29.92 "Hg (Nov 23, 11:00 pm)
Low77 °F (Nov 24, 7:00 am)66% (Nov 29, 3:00 pm)29.71 "Hg (Nov 25, 4:00 pm)
Average84 °F82%29.81 "Hg
* Reported Nov 23 11:00 pm — Dec 8 11:00 pm, Porto Novo, Weather by CustomWeather, © 2016

Note: Actual official high and low records may vary slightly from our data, if they occured in-between our weather recording intervals... More about our weather records

Advertising

Porto Novo Weather History for the Previous 24 Hours

Scroll right to see more
 ConditionsComfort  
Time TempWeatherWind HumidityBarometerVisibility
11:00 pm
Thu, Dec 8
84 °FPassing clouds.8 mph84%29.86 "HgN/A
10:00 pm84 °FPassing clouds.9 mph84%29.86 "HgN/A
9:00 pm84 °FPassing clouds.10 mph84%29.86 "HgN/A
8:00 pm84 °FPassing clouds.10 mph84%29.83 "HgN/A
7:00 pm84 °FPassing clouds.9 mph84%29.80 "HgN/A
6:00 pm84 °FPassing clouds.10 mph79%29.77 "HgN/A
5:00 pm86 °FPassing clouds.14 mph75%29.77 "HgN/A
4:00 pm88 °FPassing clouds.13 mph75%29.77 "HgN/A
3:00 pm90 °FPassing clouds.12 mph71%29.80 "HgN/A
2:00 pm90 °FPassing clouds.10 mph71%29.80 "HgN/A
1:00 pm90 °FScattered clouds.10 mph71%29.83 "HgN/A
12:00 pm90 °FScattered clouds.10 mph71%29.86 "Hg5 mi
11:00 am90 °FScattered clouds.10 mph71%29.89 "Hg4 mi
10:00 am86 °FFog.8 mph75%29.89 "Hg2 mi
9:00 am82 °FFog.1 mph89%29.89 "Hg2 mi
8:00 am81 °FFog.1 mph94%29.86 "Hg2 mi
7:00 am81 °FFog.1 mph89%29.83 "Hg2 mi
6:00 am82 °FPassing clouds.7 mph84%29.83 "Hg4 mi
5:00 am82 °FPassing clouds.9 mph84%29.83 "Hg5 mi
4:00 am82 °FPassing clouds.10 mph84%29.83 "Hg5 mi
3:00 am82 °FPassing clouds.9 mph84%29.83 "Hg5 mi
2:00 am82 °FPassing clouds.9 mph84%29.83 "Hg5 mi
1:00 am82 °FPassing clouds.9 mph84%29.83 "Hg5 mi
Weather by CustomWeather, © 2016

See weather overviewHow to use our weather pages